Flag for Belgium Weather past 2 weeks in Liège, Belgium

Now
55 °F

Sunny.


Feels Like: 52 °F
Forecast: 41 / 62 °F
Wind: 12 mph from Northeast

Location: Bierset

Current Time: Apr 19, 2015 at 8:17:59 PM

Latest Report: Apr 19, 2015 at 7:50 PM


Visibility: 10 mi

Pressure: 30.15 "Hg

Humidity: 44%

Dew point: 34 °F

Location of LiègeLocation

Historic Weather in Liège — Graph

°F

Liège temperature yesterday

Maximum temperature yesterday: 55 °F (at 2:50 PM)
Minimum temperature yesterday: 36 °F (at 4:50 AM)
Average temperature yesterday: 46 °F

Past Weeks' High & Low Weather Summary

 TemperatureHumidityPressure
High73 °F (Apr 10, 4:50 PM)93% (Apr 5, 7:20 AM)30.63 "Hg (Apr 5, 7:20 AM)
Low32 °F (Apr 5, 7:20 AM)22% (Apr 10, 4:50 PM)29.92 "Hg (Apr 16, 4:20 PM)
Average50 °F65%30.26 "Hg
* Reported Apr 4 6:20 PM — Apr 19 6:50 PM, Liège, Weather by CustomWeather, © 2015

Note: Actual official high and low records may vary slightly from our data, if they occured in-between our weather recording intervals... More about our weather records

Advertising

Liège weather history for previous 24 hours

 ConditionsComfort  
Time TempWeatherWind HumidityBarometerVisibility
6:50 PM
Sun, Apr 19
57 °FSunny.15 mph41%30.12 "Hg10 mi
6:20 PM57 °FSunny.14 mph44%30.12 "Hg10 mi
5:50 PM57 °FSunny.13 mph41%30.12 "Hg10 mi
5:20 PM57 °FSunny.14 mph41%30.12 "Hg10 mi
4:50 PM57 °FSunny.12 mph44%30.12 "Hg10 mi
4:20 PM57 °FPassing clouds.13 mph44%30.12 "HgN/A
3:50 PM59 °FPassing clouds.9 mph45%30.12 "HgN/A
3:20 PM55 °FPassing clouds.12 mph47%30.12 "HgN/A
2:50 PM55 °FPassing clouds.10 mph47%30.15 "HgN/A
2:20 PM55 °FPassing clouds.10 mph51%30.15 "HgN/A
1:50 PM54 °FPassing clouds.8 mph51%30.15 "HgN/A
1:20 PM54 °FPassing clouds.7 mph51%30.15 "HgN/A
12:50 PM52 °FPassing clouds.9 mph58%30.15 "HgN/A
12:20 PM52 °FPassing clouds.9 mph62%30.15 "HgN/A
11:50 AM50 °FPassing clouds.8 mph67%30.15 "HgN/A
11:20 AM50 °FSunny.9 mph67%30.15 "Hg10 mi
10:50 AM48 °FPassing clouds.3 mph66%30.15 "HgN/A
10:20 AM48 °FSunny.2 mph66%30.15 "Hg10 mi
9:50 AM45 °FSunny.2 mph76%30.18 "Hg10 mi
9:20 AM41 °FPassing clouds.7 mph87%30.18 "Hg6 mi
8:50 AM39 °FScattered clouds.7 mph87%30.18 "HgN/A
8:20 AM37 °FSunny.6 mph93%30.18 "Hg10 mi
7:50 AM36 °FSunny.5 mph87%30.18 "Hg10 mi
7:20 AM36 °FClear.2 mph93%30.15 "Hg10 mi
6:50 AM36 °FClear.1 mph87%30.18 "Hg10 mi
6:20 AM36 °FClear.2 mph87%30.18 "Hg10 mi
5:50 AM36 °FClear.2 mph87%30.18 "Hg10 mi
5:20 AM37 °FClear.2 mph87%30.18 "Hg10 mi
4:50 AM36 °FClear.6 mph87%30.18 "Hg10 mi
4:20 AM37 °FClear.6 mph81%30.18 "Hg10 mi
3:50 AM37 °FClear.6 mph81%30.21 "Hg10 mi
3:20 AM39 °FClear.8 mph75%30.21 "Hg10 mi
2:50 AM39 °FClear.8 mph75%30.21 "Hg10 mi
2:20 AM39 °FClear.7 mph75%30.24 "Hg10 mi
1:50 AM39 °FClear.6 mph75%30.24 "Hg10 mi
1:20 AM41 °FPassing clouds.6 mph66%30.24 "HgN/A
12:50 AM45 °FClear.3 mph57%30.24 "Hg10 mi
12:20 AM43 °FClear.5 mph61%30.24 "Hg10 mi
11:50 PM
Sat, Apr 18
43 °FClear.7 mph61%30.24 "Hg10 mi
11:20 PM45 °FClear.6 mph57%30.24 "Hg10 mi
10:50 PM46 °FClear.5 mph53%30.27 "Hg10 mi
10:20 PM45 °FClear.6 mph57%30.27 "Hg10 mi
9:50 PM46 °FClear.6 mph53%30.27 "Hg10 mi
9:20 PM46 °FSunny.8 mph53%30.24 "Hg10 mi
8:50 PM48 °FSunny.8 mph50%30.24 "Hg10 mi
8:20 PM50 °FSunny.10 mph43%30.24 "Hg10 mi
Weather by CustomWeather, © 2015

See weather overviewHow to use our weather pages